Regional Weather Roundup
Issued by NWS Goodland, KS

Home | Current Version | Previous Version | Text Only | Print | Product List | Glossary Off
Versions: 1 2 3 4 5 6 7 8 9 10 11 12 13 14 15 16 17 18 19 20 21 22 23 24 25 26 27 28 29 30 31 32 33 34 35 36 37 38 39 40 41 42 43 44 45 46 47 48 49 50

000
ASUS43 KGLD 260508
RWRGLD

GOODLAND FORECAST AREA HOURLY WEATHER ROUNDUP
NATIONAL WEATHER SERVICE GOODLAND KS
1100 PM MDT SAT APR 25 2015

...OFFICIAL OBSERVATIONS...

CITY           SKY/WX    TMP DP  RH WIND       PRES   REMARKS
GOODLAND KS    CLOUDY    52  50  93 E21       29.78S
HILL CITY KS   CLOUDY    50  47  89 E14       29.83R
IMPERIAL NEB   CLOUDY    51  46  83 E18G25    29.81S
MCCOOK NEB     CLOUDY    49  46  90 E16       29.84R FOG
AKRON CO       CLOUDY    49  45  86 N12       29.80R
BURLINGTON CO  CLOUDY    53  50  89 SE23G30   29.76S
LIMON CO       CLOUDY    53  40  61 SE10      29.76S
$$

...UNOFFICIAL OBSERVATIONS...

CITY           SKY/WX    TMP DP  RH WIND       PRES   REMARKS
GOVE KS          N/A     52  32  46 MISG        N/A
LENORA KS        N/A     47  32  56 MISG        N/A
SHARON SPRINGS   N/A     53  50  91 SE9G16      N/A
TRIBUNE KS     CLEAR     55  55 100 E18G25    29.77R
KIT CARSON CO    N/A     54  47  77 MISG        N/A
YUMA CO          N/A     50  43  75 NE17G24     N/A
$$


USA.gov is the U.S. government's official web portal to all federal, state and local government web resources and services.